Weather History for Jefferson City, MO

Change the Weather History Date:

Sunday, November 11, 2012

  Actual Average Record
Temperature  
Mean Temperature 53 °F -  
Max Temperature 71 °F 54 °F 83 °F (1949)
Min Temperature 34 °F 32 °F 11 °F (1950)
Degree Days  
Heating Degree Days 12    
Growing Degree Days 3 (Base 50)    
Moisture  
Dew Point 44 °F    
Average Humidity 80    
Maximum Humidity 94    
Minimum Humidity 56    
Precipitation  
Precipitation 0.67 in - - ()
Sea Level Pressure  
Sea Level Pressure 29.92 in    
Wind  
Wind Speed 13 mph (WNW)    
Max Wind Speed 24 mph    
Max Gust Speed 40 mph    
Visibility 7 miles    
Events Rain , Snow    
Averages and records for this station are not official NWS values.
T = Trace of Precipitation, MM = Missing Value Source: NWS Daily Summary

Daily Weather History Graph

Daily Weather History Graph

Search for Another Location

Airport:

Trip Planner

Search our weather history database for the weather conditions in past years. The results will help you decide how hot, cold, wet, or windy it might be!

Date:

Astronomy

Nov. 11, 2012 Rise Set
Actual Time 6:46 AM CST 4:58 PM CST
Civil Twilight 6:18 AM CST 5:26 PM CST
Nautical Twilight 5:46 AM CST 5:58 PM CST
Astronomical Twilight 5:15 AM CST 6:29 PM CST
Moon 4:02 AM CST (11/11) 3:20 PM CST (11/11)
Length of Visible Light 11h 07m
Length of Day
10h 11m
Waning Crescent, 7% of the Moon is Illuminated
Nov 11
Waning Crescent
Nov 13
New
Nov 20
First Quarter
Nov 28
Full
Dec 6
Last Quarter

Hourly Weather History & Observations

Time (CST) Temp. Windchill Dew Point Humidity Pressure Visibility Wind Dir Wind Speed Gust Speed Precip Events Conditions
12:53 AM 68.0 °F - 52.0 °F 56% 29.82 in 10.0 mi South 11.5 mph 23.0 mph N/A   Clear
1:53 AM 68.0 °F - 52.0 °F 56% 29.81 in 10.0 mi South 15.0 mph 23.0 mph N/A   Clear
2:53 AM 66.9 °F - 52.0 °F 59% 29.81 in 10.0 mi South 12.7 mph 21.9 mph N/A   Clear
3:53 AM 66.9 °F - 53.1 °F 61% 29.80 in 10.0 mi SSE 12.7 mph - N/A   Clear
4:53 AM 64.9 °F - 54.0 °F 68% 29.81 in 10.0 mi SSE 11.5 mph 18.4 mph 0.00 in Rain Light Rain
5:53 AM 64.9 °F - 54.0 °F 68% 29.78 in 10.0 mi SE 12.7 mph 19.6 mph 0.00 in   Clear
6:53 AM 64.9 °F - 54.0 °F 68% 29.76 in 10.0 mi SSE 16.1 mph 23.0 mph N/A   Clear
7:53 AM 66.9 °F - 55.0 °F 66% 29.75 in 10.0 mi SSE 17.3 mph 25.3 mph N/A   Clear
8:53 AM 69.1 °F - 55.0 °F 61% 29.75 in 10.0 mi SSE 18.4 mph 27.6 mph N/A   Mostly Cloudy
10:53 AM 71.1 °F - 55.0 °F 57% 29.71 in 10.0 mi South 23.0 mph 31.1 mph N/A   Overcast
11:34 AM 57.2 °F - 51.8 °F 82% 29.78 in 3.0 mi WNW 24.2 mph 40.3 mph 0.02 in Rain Heavy Rain
11:48 AM 55.4 °F - 51.8 °F 88% 29.81 in 5.0 mi WNW 17.3 mph 28.8 mph 0.04 in Rain Light Rain
11:53 AM 55.0 °F - 51.1 °F 86% 29.78 in 4.0 mi WNW 15.0 mph 28.8 mph 0.04 in Rain Light Rain
12:08 PM 55.4 °F - 51.8 °F 88% 29.80 in 3.0 mi NW 17.3 mph 23.0 mph 0.02 in Rain Light Rain
12:26 PM 53.6 °F - 50.0 °F 88% 29.83 in 2.0 mi WNW 15.0 mph 25.3 mph 0.06 in Rain Rain
12:33 PM 53.6 °F - 50.0 °F 88% 29.85 in 3.0 mi WNW 17.3 mph 25.3 mph 0.07 in Rain Light Rain
12:41 PM 53.6 °F - 50.0 °F 88% 29.84 in 1.8 mi WNW 12.7 mph 21.9 mph 0.11 in Rain Heavy Rain
12:51 PM 53.6 °F - 50.0 °F 88% 29.84 in 3.0 mi WNW 10.4 mph - 0.13 in Rain Light Rain
12:53 PM 53.1 °F - 50.0 °F 89% 29.81 in 3.0 mi WNW 9.2 mph - 0.13 in Rain Light Rain
1:05 PM 53.6 °F - 48.2 °F 82% 29.86 in 6.0 mi WNW 10.4 mph - 0.00 in Rain Light Rain
1:14 PM 53.6 °F - 50.0 °F 88% 29.87 in 2.5 mi West 5.8 mph - 0.04 in Rain Heavy Rain
1:19 PM 53.6 °F - 50.0 °F 88% 29.85 in 1.5 mi WNW 4.6 mph - 0.06 in Rain Heavy Rain
1:29 PM 53.6 °F - 51.8 °F 94% 29.85 in 3.0 mi Calm Calm - 0.07 in Rain Light Rain
1:46 PM 53.6 °F - 50.0 °F 88% 29.86 in 4.0 mi Calm Calm - 0.10 in Rain Light Rain
1:53 PM 53.1 °F - 50.0 °F 89% 29.85 in 3.0 mi West 6.9 mph - 0.13 in Rain Heavy Rain
1:57 PM 53.6 °F - 50.0 °F 88% 29.86 in 1.8 mi WNW 4.6 mph - 0.03 in Rain Heavy Rain
2:08 PM 53.6 °F - 50.0 °F 88% 29.87 in 2.5 mi West 3.5 mph - 0.06 in Rain Light Rain
2:14 PM 53.6 °F - 50.0 °F 88% 29.86 in 3.0 mi WNW 3.5 mph - 0.07 in Rain Rain
2:28 PM 53.6 °F - 48.2 °F 82% 29.88 in 4.0 mi WSW 5.8 mph - 0.10 in Rain Rain
2:53 PM 53.1 °F - 48.0 °F 83% 29.87 in 6.0 mi WSW 8.1 mph - 0.14 in Rain Light Rain
3:06 PM 51.8 °F - 48.2 °F 88% 29.91 in 2.5 mi WSW 4.6 mph - 0.04 in Rain Rain
3:13 PM 51.8 °F - 48.2 °F 88% 29.91 in 4.0 mi WSW 5.8 mph - 0.05 in Rain Light Rain
3:39 PM 51.8 °F - 48.2 °F 88% 29.93 in 6.0 mi West 9.2 mph - 0.07 in Rain Light Rain
3:51 PM 50.0 °F - 46.4 °F 87% 29.93 in 9.0 mi NW 8.1 mph - 0.08 in Rain Light Rain
3:53 PM 50.0 °F - 46.0 °F 86% 29.89 in 8.0 mi NW 11.5 mph - 0.08 in Rain Light Rain
4:05 PM 48.2 °F - 44.6 °F 87% 29.92 in 10.0 mi NW 10.4 mph - 0.01 in Rain Light Rain
4:12 PM 48.2 °F - 44.6 °F 87% 29.92 in 10.0 mi NW 10.4 mph - 0.01 in   Overcast
4:53 PM 44.1 °F 36.2 °F 39.9 °F 85% 29.93 in 10.0 mi NW 18.4 mph 24.2 mph 0.05 in Rain Light Rain
5:00 PM 42.8 °F 34.8 °F 39.2 °F 87% 29.95 in 8.0 mi NW 17.3 mph 26.5 mph 0.01 in Rain Light Rain
5:03 PM 42.8 °F 35.1 °F 39.2 °F 87% 29.96 in 7.0 mi WNW 16.1 mph 26.5 mph 0.02 in Rain Rain
5:11 PM 42.8 °F 35.1 °F 37.4 °F 81% 29.97 in 7.0 mi WNW 16.1 mph 23.0 mph 0.03 in Rain Light Rain
5:30 PM 39.2 °F 30.8 °F 35.6 °F 87% 30.00 in 7.0 mi WNW 15.0 mph 20.7 mph 0.06 in Rain Rain
5:53 PM 39.0 °F 31.4 °F 36.0 °F 89% 29.99 in 6.0 mi WNW 12.7 mph - 0.10 in Rain Rain
6:00 PM 39.2 °F 33.6 °F 35.6 °F 87% 30.02 in 6.0 mi WNW 8.1 mph - 0.01 in Rain Rain
6:40 PM 37.4 °F 28.5 °F 33.8 °F 87% 30.03 in 9.0 mi NW 15.0 mph - 0.06 in Snow Light Snow
7:51 PM 35.6 °F 26.2 °F 32.0 °F 87% 30.07 in 9.0 mi WNW 15.0 mph 23.0 mph 0.00 in Snow Light Snow
7:53 PM 36.0 °F 27.1 °F 32.0 °F 86% 30.05 in 9.0 mi WNW 13.8 mph 23.0 mph 0.00 in Snow Light Snow
8:32 PM 35.6 °F 27.1 °F 30.2 °F 81% 30.13 in 9.0 mi WNW 12.7 mph 21.9 mph 0.00 in Snow Light Snow
8:53 PM 36.0 °F 26.7 °F 30.0 °F 79% 30.10 in 9.0 mi NW 15.0 mph 18.4 mph 0.00 in Snow Light Snow
9:06 PM 35.6 °F 27.1 °F 30.2 °F 81% 30.12 in 9.0 mi WNW 12.7 mph 21.9 mph 0.00 in Snow Light Snow
9:44 PM 35.6 °F 26.6 °F 30.2 °F 81% 30.16 in 9.0 mi WNW 13.8 mph 19.6 mph 0.00 in Snow Light Snow
9:53 PM 36.0 °F 27.5 °F 28.9 °F 76% 30.12 in 9.0 mi NW 12.7 mph - 0.00 in Snow Light Snow
10:03 PM 35.6 °F 26.6 °F 26.6 °F 70% 30.15 in 9.0 mi NW 13.8 mph 21.9 mph 0.00 in Snow Light Snow
10:11 PM 35.6 °F 25.5 °F 26.6 °F 70% 30.14 in 9.0 mi NW 17.3 mph 24.2 mph 0.00 in Snow Light Snow
10:41 PM 35.6 °F 25.9 °F 26.6 °F 70% 30.17 in 9.0 mi WNW 16.1 mph 23.0 mph 0.00 in Snow Light Snow
10:51 PM 35.6 °F 26.6 °F 26.6 °F 70% 30.16 in 9.0 mi NW 13.8 mph 23.0 mph 0.00 in Snow Light Snow
10:53 PM 35.1 °F 25.9 °F 26.1 °F 70% 30.14 in 9.0 mi NW 13.8 mph 21.9 mph 0.00 in Snow Light Snow
11:53 PM 34.0 °F 25.0 °F 25.0 °F 70% 30.17 in 9.0 mi WNW 12.7 mph 19.6 mph 0.00 in Snow Light Snow